Time,TemperatureF,DewpointF,PressureIn,WindDirection,WindDirectionDegrees,WindSpeedMPH,WindSpeedGustMPH,Humidity,HourlyPrecipIn,Conditions,Clouds,dailyrainin,SoftwareType,DateUTC
2013-07-02 00:00:00,73.2,72.0,30.04,SSE,149,0.0,0.0,96,0.00,,---,0.00,VWS V13.01,2013-07-02 04:00:00,
2013-07-02 00:07:00,73.1,71.9,30.04,SSE,149,0.0,0.0,96,0.00,,---,0.00,VWS V13.01,2013-07-02 04:07:00,
2013-07-02 00:30:00,73.2,72.0,30.03,SSE,149,0.0,0.0,96,0.00,,---,0.00,VWS V13.01,2013-07-02 04:30:00,
2013-07-02 00:37:00,73.2,72.0,30.03,SSE,149,0.0,0.0,96,0.00,,---,0.00,VWS V13.01,2013-07-02 04:37:00,
2013-07-02 01:00:00,73.4,72.2,30.02,SE,145,0.0,0.0,96,0.00,,---,0.00,VWS V13.01,2013-07-02 05:00:00,
2013-07-02 01:07:00,73.2,72.0,30.02,SE,145,0.0,0.0,96,0.00,,---,0.00,VWS V13.01,2013-07-02 05:07:00,
2013-07-02 01:30:00,73.3,72.1,30.01,SE,145,0.0,0.0,96,0.00,,---,0.00,VWS V13.01,2013-07-02 05:30:00,
2013-07-02 01:37:00,73.3,72.1,30.01,SE,145,0.0,0.0,96,0.00,,---,0.00,VWS V13.01,2013-07-02 05:37:00,
2013-07-02 02:00:00,73.1,71.9,30.01,SE,145,0.0,0.0,96,0.00,,---,0.00,VWS V13.01,2013-07-02 06:00:00,
2013-07-02 02:07:00,73.1,71.9,30.00,SE,145,0.0,0.0,96,0.00,,---,0.00,VWS V13.01,2013-07-02 06:07:00,
2013-07-02 02:30:00,73.1,71.9,30.00,SE,145,0.0,0.0,96,0.00,,---,0.00,VWS V13.01,2013-07-02 06:30:00,
2013-07-02 02:37:00,73.1,71.9,30.00,SE,146,0.0,0.0,96,0.00,,---,0.00,VWS V13.01,2013-07-02 06:37:00,
2013-07-02 03:00:00,73.3,72.1,29.99,SE,146,0.0,0.0,96,0.00,,---,0.00,VWS V13.01,2013-07-02 07:00:00,
2013-07-02 03:07:00,73.4,72.2,29.99,SE,145,0.0,0.0,96,0.00,,---,0.00,VWS V13.01,2013-07-02 07:07:00,
2013-07-02 03:30:00,73.9,72.7,29.99,SE,145,0.0,0.0,96,0.00,,---,0.00,VWS V13.01,2013-07-02 07:30:00,
2013-07-02 03:37:00,73.7,72.5,29.99,SE,146,0.0,0.0,96,0.00,,---,0.00,VWS V13.01,2013-07-02 07:37:00,
2013-07-02 04:00:00,74.3,73.1,29.99,SE,146,0.0,0.0,96,0.00,,---,0.00,VWS V13.01,2013-07-02 08:00:00,
2013-07-02 04:07:00,74.1,72.6,29.98,SE,146,0.0,0.0,95,0.00,,---,0.00,VWS V13.01,2013-07-02 08:07:00,
2013-07-02 04:30:00,74.3,72.8,29.98,SE,146,0.0,0.0,95,0.00,,---,0.00,VWS V13.01,2013-07-02 08:30:00,
2013-07-02 04:37:00,74.3,72.8,29.99,SE,145,0.0,0.0,95,0.00,,---,0.00,VWS V13.01,2013-07-02 08:37:00,
2013-07-02 05:00:00,74.8,73.3,30.00,SE,145,0.0,0.0,95,0.00,,---,0.00,VWS V13.01,2013-07-02 09:00:00,
2013-07-02 05:07:00,75.0,73.5,30.00,SE,145,0.0,0.0,95,0.00,,---,0.00,VWS V13.01,2013-07-02 09:07:00,
2013-07-02 05:30:00,75.1,73.6,30.00,SE,146,0.0,0.0,95,0.00,,---,0.00,VWS V13.01,2013-07-02 09:30:00,
2013-07-02 05:37:00,75.2,73.7,30.01,SE,146,0.0,0.0,95,0.00,,---,0.00,VWS V13.01,2013-07-02 09:37:00,
2013-07-02 06:00:00,75.4,73.9,30.01,SE,146,0.0,0.0,95,0.00,,---,0.00,VWS V13.01,2013-07-02 10:00:00,
2013-07-02 06:07:00,75.5,74.0,30.01,SE,146,0.0,0.0,95,0.00,,---,0.00,VWS V13.01,2013-07-02 10:07:00,
2013-07-02 06:30:00,75.6,74.1,30.02,SE,146,0.0,0.0,95,0.00,,---,0.00,VWS V13.01,2013-07-02 10:30:00,
2013-07-02 06:37:00,76.3,74.8,30.02,SE,145,0.0,0.0,95,0.00,,---,0.00,VWS V13.01,2013-07-02 10:37:00,
2013-07-02 07:00:00,76.3,74.8,30.03,SE,145,0.0,0.0,95,0.00,,---,0.00,VWS V13.01,2013-07-02 11:00:00,
2013-07-02 07:07:00,76.2,74.3,30.03,SE,146,0.0,0.0,94,0.00,,---,0.00,VWS V13.01,2013-07-02 11:07:00,
2013-07-02 07:30:00,76.7,75.2,30.04,SE,146,0.0,0.0,95,0.00,,---,0.00,VWS V13.01,2013-07-02 11:30:00,
2013-07-02 07:37:00,76.7,74.8,30.04,SE,146,0.0,0.0,94,0.00,,---,0.00,VWS V13.01,2013-07-02 11:37:00,
2013-07-02 08:00:00,77.3,75.4,30.05,SE,146,0.0,0.0,94,0.00,,---,0.00,VWS V13.01,2013-07-02 12:00:00,
2013-07-02 08:07:00,77.6,76.1,30.05,SE,145,0.0,0.0,95,0.00,,---,0.00,VWS V13.01,2013-07-02 12:07:00,
2013-07-02 08:30:00,77.9,76.4,30.04,SE,145,0.0,0.0,95,0.00,,---,0.00,VWS V13.01,2013-07-02 12:30:00,
2013-07-02 08:37:00,77.9,76.4,30.05,SE,145,0.0,0.0,95,0.00,,---,0.00,VWS V13.01,2013-07-02 12:37:00,
2013-07-02 09:00:00,78.8,77.2,30.05,SE,145,0.0,0.0,95,0.00,,---,0.00,VWS V13.01,2013-07-02 13:00:00,
2013-07-02 09:07:00,79.0,77.4,30.06,SE,146,0.0,0.0,95,0.00,,---,0.00,VWS V13.01,2013-07-02 13:07:00,
2013-07-02 09:30:00,79.7,78.2,30.06,SE,146,0.0,0.0,95,0.00,,---,0.00,VWS V13.01,2013-07-02 13:30:00,
2013-07-02 09:37:00,80.0,78.4,30.06,SE,145,0.0,0.0,95,0.00,,---,0.00,VWS V13.01,2013-07-02 13:37:00,
2013-07-02 10:00:00,81.0,78.8,30.07,South,181,0.0,7.0,93,0.00,,---,0.00,VWS V13.01,2013-07-02 14:00:00,
2013-07-02 10:07:00,81.7,79.2,30.06,South,179,7.0,7.0,92,0.00,,---,0.00,VWS V13.01,2013-07-02 14:07:00,
2013-07-02 10:30:00,82.9,79.3,30.06,South,190,0.0,10.0,89,0.00,,---,0.00,VWS V13.01,2013-07-02 14:30:00,
2013-07-02 10:37:00,82.9,78.6,30.06,SSE,163,6.0,10.0,87,0.00,,---,0.00,VWS V13.01,2013-07-02 14:37:00,
2013-07-02 11:00:00,84.1,78.8,30.06,South,188,0.0,10.0,84,0.00,,---,0.00,VWS V13.01,2013-07-02 15:00:00,
2013-07-02 11:07:00,84.3,78.6,30.06,South,178,4.0,11.0,83,0.00,,---,0.00,VWS V13.01,2013-07-02 15:07:00,
2013-07-02 11:30:00,85.6,78.0,30.05,SSW,207,2.0,11.0,78,0.00,,---,0.00,VWS V13.01,2013-07-02 15:30:00,
2013-07-02 11:37:00,86.4,77.5,30.06,SSE,156,6.0,10.0,75,0.00,,---,0.00,VWS V13.01,2013-07-02 15:37:00,
2013-07-02 12:00:00,87.0,78.1,30.05,SE,141,9.0,13.0,75,0.00,,---,0.00,VWS V13.01,2013-07-02 16:00:00,
2013-07-02 12:07:00,85.9,77.9,30.05,South,171,3.0,10.0,77,0.00,,---,0.00,VWS V13.01,2013-07-02 16:07:00,
2013-07-02 12:30:00,84.4,77.2,30.05,South,186,10.0,13.0,79,0.00,,---,0.00,VWS V13.01,2013-07-02 16:30:00,
2013-07-02 12:37:00,84.0,76.8,30.05,SSE,168,6.0,12.0,79,0.00,,---,0.00,VWS V13.01,2013-07-02 16:37:00,
2013-07-02 13:00:00,83.7,77.6,30.08,South,188,0.0,12.0,82,0.00,,---,0.00,VWS V13.01,2013-07-02 17:00:00,
2013-07-02 13:07:00,83.3,76.5,30.08,SW,223,6.0,10.0,80,0.00,,---,0.00,VWS V13.01,2013-07-02 17:07:00,
2013-07-02 13:30:00,77.2,72.7,30.09,WSW,242,0.0,14.0,86,0.00,,---,0.00,VWS V13.01,2013-07-02 17:30:00,
2013-07-02 13:37:00,76.1,72.3,30.10,NW,318,7.0,15.0,88,0.00,,---,0.00,VWS V13.01,2013-07-02 17:37:00,
2013-07-02 14:00:00,74.0,71.8,30.12,SW,229,0.0,17.0,93,0.00,,---,0.00,VWS V13.01,2013-07-02 18:00:00,
2013-07-02 14:08:00,73.7,71.6,30.12,West,281,0.0,5.0,93,0.00,,---,0.00,VWS V13.01,2013-07-02 18:08:00,
2013-07-02 14:30:00,73.5,71.7,30.10,NNW,328,0.0,5.0,94,0.00,,---,0.00,VWS V13.01,2013-07-02 18:30:00,
2013-07-02 14:38:00,73.9,72.1,30.10,NW,325,0.0,0.0,94,0.00,,---,0.00,VWS V13.01,2013-07-02 18:38:00,
2013-07-02 15:00:00,73.7,72.2,30.09,NW,307,0.0,0.0,95,0.00,,---,0.00,VWS V13.01,2013-07-02 19:00:00,
2013-07-02 15:08:00,73.8,72.3,30.09,NW,315,0.0,0.0,95,0.00,,---,0.00,VWS V13.01,2013-07-02 19:08:00,
2013-07-02 15:30:00,73.7,72.2,30.08,NW,317,0.0,0.0,95,0.00,,---,0.00,VWS V13.01,2013-07-02 19:30:00,
2013-07-02 15:38:00,73.8,72.3,30.07,NW,317,0.0,0.0,95,0.00,,---,0.00,VWS V13.01,2013-07-02 19:38:00,
2013-07-02 16:00:00,74.8,73.3,30.06,NW,317,0.0,0.0,95,0.00,,---,0.00,VWS V13.01,2013-07-02 20:00:00,
2013-07-02 16:08:00,74.9,73.4,30.05,NW,317,0.0,0.0,95,0.00,,---,0.00,VWS V13.01,2013-07-02 20:08:00,
2013-07-02 16:30:00,75.8,73.9,30.05,NW,317,0.0,0.0,94,0.00,,---,0.00,VWS V13.01,2013-07-02 20:30:00,
2013-07-02 16:38:00,75.5,73.7,30.05,NNW,327,0.0,0.0,94,0.00,,---,0.00,VWS V13.01,2013-07-02 20:38:00,
2013-07-02 17:00:00,76.5,74.7,30.05,NNW,331,0.0,0.0,94,0.00,,---,0.00,VWS V13.01,2013-07-02 21:00:00,
2013-07-02 17:08:00,76.7,74.5,30.05,NNW,331,0.0,0.0,93,0.00,,---,0.00,VWS V13.01,2013-07-02 21:08:00,
2013-07-02 17:30:00,78.1,75.6,30.05,NNW,331,0.0,0.0,92,0.00,,---,0.00,VWS V13.01,2013-07-02 21:30:00,
2013-07-02 17:38:00,78.3,75.5,30.05,NNW,331,0.0,0.0,91,0.00,,---,0.00,VWS V13.01,2013-07-02 21:38:00,
2013-07-02 18:00:00,78.4,74.9,30.07,NNW,331,0.0,0.0,89,0.00,,---,0.00,VWS V13.01,2013-07-02 22:00:00,
2013-07-02 18:08:00,78.0,74.5,30.07,NNW,330,0.0,0.0,89,0.00,,---,0.00,VWS V13.01,2013-07-02 22:08:00,
2013-07-02 18:30:00,78.3,74.8,30.07,NNW,330,0.0,0.0,89,0.00,,---,0.00,VWS V13.01,2013-07-02 22:30:00,
2013-07-02 18:38:00,78.1,74.9,30.07,NNW,330,0.0,0.0,90,0.00,,---,0.00,VWS V13.01,2013-07-02 22:38:00,
2013-07-02 19:00:00,77.7,75.2,30.09,NNW,330,0.0,0.0,92,0.00,,---,0.00,VWS V13.01,2013-07-02 23:00:00,
2013-07-02 19:08:00,77.5,75.0,30.09,NNW,330,0.0,0.0,92,0.00,,---,0.00,VWS V13.01,2013-07-02 23:08:00,
2013-07-02 19:30:00,77.4,74.9,30.09,NNW,330,0.0,0.0,92,0.00,,---,0.00,VWS V13.01,2013-07-02 23:30:00,
2013-07-02 19:38:00,78.2,76.0,30.09,NNW,330,0.0,0.0,93,0.00,,---,0.00,VWS V13.01,2013-07-02 23:38:00,
2013-07-02 20:00:00,77.3,74.8,30.09,NNW,330,0.0,0.0,92,0.00,,---,0.00,VWS V13.01,2013-07-03 00:00:00,
2013-07-02 20:08:00,77.1,74.6,30.10,NNE,17,0.0,0.0,92,0.00,,---,0.00,VWS V13.01,2013-07-03 00:08:00,
2013-07-02 20:30:00,75.9,73.7,30.10,East,80,0.0,0.0,93,0.00,,---,0.00,VWS V13.01,2013-07-03 00:30:00,
2013-07-02 20:38:00,75.6,73.4,30.11,East,81,0.0,0.0,93,0.00,,---,0.00,VWS V13.01,2013-07-03 00:38:00,
2013-07-02 21:00:00,75.2,73.4,30.10,East,81,0.0,0.0,94,0.00,,---,0.00,VWS V13.01,2013-07-03 01:00:00,
2013-07-02 21:08:00,75.1,73.3,30.10,East,81,0.0,0.0,94,0.00,,---,0.00,VWS V13.01,2013-07-03 01:08:00,
2013-07-02 21:30:00,74.8,73.0,30.10,East,80,0.0,0.0,94,0.00,,---,0.00,VWS V13.01,2013-07-03 01:30:00,
2013-07-02 21:38:00,74.8,73.0,30.10,East,80,0.0,0.0,94,0.00,,---,0.00,VWS V13.01,2013-07-03 01:38:00,
2013-07-02 22:00:00,74.6,72.8,30.10,East,81,0.0,0.0,94,0.00,,---,0.00,VWS V13.01,2013-07-03 02:00:00,
2013-07-02 22:30:00,74.4,72.9,30.10,East,81,0.0,0.0,95,0.00,,---,0.00,VWS V13.01,2013-07-03 02:30:00,
2013-07-02 22:38:00,74.4,72.9,30.10,East,96,0.0,0.0,95,0.00,,---,0.00,VWS V13.01,2013-07-03 02:38:00,
2013-07-02 23:08:00,74.6,73.1,30.10,East,98,0.0,0.0,95,0.00,,---,0.00,VWS V13.01,2013-07-03 03:08:00,
2013-07-02 23:30:00,74.8,73.3,30.10,ESE,102,0.0,0.0,95,0.00,,---,0.00,VWS V13.01,2013-07-03 03:30:00,
2013-07-02 23:38:00,74.7,73.2,30.09,ESE,102,0.0,0.0,95,0.00,,---,0.00,VWS V13.01,2013-07-03 03:38:00,